Regional Weather Roundup
Issued by NWS Midland/Odessa, TX

Skip options and go directly to product.
Home | Oldest Version | Previous Version | Current Version | All | Text Only | Save Text | Print | Product List | Glossary On

Skip product version selection by date and time.   
900
ASUS44 KMAF 021210
RWRMAF
MIDLAND AREA WEATHER ROUNDUP
NATIONAL WEATHER SERVICE MIDLAND TX
700 AM CDT MON MAY 02 2016

...IN SOUTHWEST TEXAS AND SOUTHEAST NEW MEXICO...

CITY           SKY/WX    TMP DP  RH WIND       PRES   REMARKS
ALPINE         CLOUDY    44  36  73 NE10      30.29R WCI  38
ANDREWS        FAIR      39  34  82 N5        30.26R WCI  35
ARTESIA        CLOUDY    43  34  70 NW5       30.29R
BIG SPRING     CLOUDY    44  36  73 N13       30.25S WCI  37
CARLSBAD       CLEAR     42  33  70 N6        30.27R WCI  38
DRYDEN           N/A     55  42  61 N16G25    30.17R
FORT STOCKTON  CLOUDY    49  37  63 N10       30.24R
GUAD PASS      FOG       33  32  96 NE26      30.22R VSB 1/2 WCI  20
HOBBS          PTCLDY    37  37 100 N6        30.27R WCI  33
MARFA          CLOUDY    42  36  79 N18       30.22R WCI  34
MIDLAND AIRPK  CLOUDY    47  40  77 N9        30.24S
MIDLAND INTL   LGT RAIN  46  39  76 N15       30.23R WCI  40
ODESSA         CLOUDY    46  38  73 N14       30.24R WCI  40
PECOS          CLOUDY    49  35  60 N14       30.26R
PRESIDIO       CLOUDY    56  38  49 MISG      30.16R
SEMINOLE       CLOUDY    43  35  73 N7        30.27R WCI  39
SNYDER           N/A     46  39  78 N9        30.24R
WINK           CLOUDY    43  35  73 N7        30.25R WCI  39
$$
...OTHER STATIONS IN TEXAS...

CITY           SKY/WX    TMP DP  RH WIND       PRES   REMARKS
ABILENE        MOCLDY    48  45  89 N13       30.19F
AMARILLO       CLEAR     34  33  96 W8        30.24S WCI  27
AUSTIN         CLOUDY    63  51  65 N20       30.03R
BROWNSVILLE    CLOUDY    77  77 100 N3        29.85R FOG
CORPUS CHRISTI CLOUDY    72  64  76 N14       29.90R
DALLAS FTW     TSTM      54  50  86 N14       30.09S
DEL RIO        CLOUDY    60  48  64 N14G22    30.11R
EL PASO        CLEAR     44  34  67 NE5       30.21R
HOUSTON INT    CLOUDY    67  66  97 N9        29.91S
LUBBOCK        PTCLDY    39  36  89 NW5       30.24R WCI  36
SAN ANGELO     LGT RAIN  49  46  90 N10       30.19S
SAN ANTONIO    CLOUDY    64  50  60 N18G25    30.01R
WACO           CLOUDY    58  51  78 N15G25    30.09R
WICHITA FALLS  NOT AVBL
$$
...OTHER LOCATIONS IN NEW MEXICO...

CITY           SKY/WX    TMP DP  RH WIND       PRES   REMARKS
ALAMAGORDO     CLEAR     37  28  70 SE5       30.23R WCI  34
ALBUQUERQUE    CLOUDY    39  30  70 E13       30.26S WCI  31
CANNON AFB     CLEAR     37  37  99 N9        30.27R WCI  30
CLOVIS         CLEAR     36  30  80 NW8       30.27R WCI  29
HOLLOMAN AFB   CLEAR     42  32  67 S10       30.21R WCI  36
ROSWELL        CLOUDY    44  35  70 N8        30.28R WCI  39
RUIDOSO          N/A     32  32 100 SE5       30.28S WCI  27
SANTA FE       CLOUDY    35  30  82 S8        30.27S WCI  29
TRUTH OR CONSE LGT RAIN  41  31  67 NE12      30.22R WCI  34
TUCUMCARI      CLEAR     33  31  92 W7        30.27R WCI  27
$$

USA.gov is the U.S. government's official web portal to all federal, state and local government web resources and services.